Location: Naples
(26.1420°N, 81.7950°W)
Time: 13:17:25
(UTC-04:00)

Tiangong - Pass Details

Date: 17 May 2026
Orbit: 380 x 392 km, 41.5° (Epoch: 11 June)

Event Time Altitude Azimuth Distance (km) Brightness Sun altitude
Rises 20:30:58 0° 202° (SSW) 2,276 1.8 -5.6°
Reaches altitude 10° 20:33:30 10° 182° (S) 1,424 0.5 -6.1°
Maximum altitude 20:35:44 17° 138° (SE) 1,069 -0.5 -6.6°
Drops below altitude 10° 20:37:58 10° 94° (E) 1,429 0.2 -7.0°
Enters shadow 20:38:55 - 84° (E) 1,722 0.6 -7.2°
